Regional Weather Roundup
Issued by NWS

Home | Current Version | Previous Version | Graphics & Text | Print | Product List | Glossary On
Versions: 1 2 3 4 5 6 7 8 9 10 11 12 13 14 15 16 17 18 19 20 21 22 23 24 25 26 27 28 29 30 31 32 33 34 35 36 37 38 39 40 41 42 43 44 45 46 47 48 49 50
000
ASUS43 KMKX 300000
RWRWI

WISCONSIN REGIONAL WEATHER ROUNDUP
NATIONAL WEATHER SERVICE MILWAUKEE/SULLIVAN WI
700 PM CDT FRI AUG 29 2014

NOTE: "FAIR" INDICATES FEW OR NO CLOUDS BELOW 12,000 FEET WITH NO
SIGNIFICANT WEATHER AND/OR OBSTRUCTIONS TO VISIBILITY.

WIZ001-002-006>008-014>016-023>028-300100-
NORTHWEST WISCONSIN

CITY           SKY/WX    TMP DP  RH WIND       PRES   REMARKS
SUPERIOR ARPT  CLOUDY    62  61  98 NE5       29.76S FOG
ASHLAND        CLOUDY    67  66  97 N3        29.77R FOG
6HR MIN TEMP:  66; 6HR MAX TEMP:  69; 6HR PCP:  0.12;

HAYWARD        CLOUDY    68  66  93 S5        29.77F
6HR MIN TEMP:  65; 6HR MAX TEMP:  69; 6HR PCP:  0.14;

SIREN          RAIN      69  67  94 CALM      29.76S
RICE LAKE      RAIN      68  66  93 CALM      29.77F
6HR MIN TEMP:  67; 6HR MAX TEMP:  73;

LADYSMITH      CLOUDY    66  65  96 SE6       29.80R
EAU CLAIRE     CLOUDY    71  69  93 S6        29.78R
6HR MIN TEMP:  70; 6HR MAX TEMP:  82; 6HR PCP:  0.13;

MENOMONIE      CLOUDY    69  66  93 SE5       29.77R
6HR MIN TEMP:  69; 6HR MAX TEMP:  84; 6HR PCP:  0.53;

NEW RICHMOND   LGT RAIN  71  70  96 S5        29.77R
OSCEOLA        HVY RAIN  70  70 100 CALM      29.78R
$$

WIZ003>005-009-010-017-018-300100-
NORTH CENTRAL WISCONSIN

CITY           SKY/WX    TMP DP  RH WIND       PRES   REMARKS
WOODRUFF       TSTM      69  67  90 SW5       29.84R
RHINELANDER    MOCLDY    68  66  93 N5        29.84F FOG
6HR MIN TEMP:  63; 6HR MAX TEMP:  71;

EAGLE RIVER    MOCLDY    68  66  94 S5        29.83F
LAND O LAKES   MOCLDY    68  65  90 SE5       29.83F
PHILLIPS       LGT RAIN  64  64  98 SE6       29.79F
TOMAHAWK       PTCLDY    70  67  90 CALM      29.82S FOG
MEDFORD        CLOUDY    69  65  86 W13       29.81R
MERRILL        PTCLDY    73  71  92 CALM      29.80F
$$

WIZ029-030-035-036-043>047-300100-
CENTRAL WISCONSIN

CITY           SKY/WX    TMP DP  RH WIND       PRES   REMARKS
WAUSAU         LGT RAIN  76  71  85 W10       29.78F
6HR MIN TEMP:  67; 6HR MAX TEMP:  80; 6HR PCP:  0.01;

MOSINEE        MOCLDY    72  64  78 W14G29    29.81S
MARSHFIELD     PTCLDY    74  65  73 E5        29.79S
6HR MIN TEMP:  73; 6HR MAX TEMP:  83;

STEVENS POINT  HVY RAIN  77  71  79 SW8       29.81R
WAUPACA        PTCLDY    82  71  68 SE9       29.80S HX  86
WAUTOMA        NOT AVBL
WISC RAPIDS    PTCLDY    80  71  74 S6        29.80F HX  84
6HR MIN TEMP:  74; 6HR MAX TEMP:  86;

CAMP DOUGLAS   NOT AVBL
$$

WIZ011>013-019>022-031-037>040-048>050-300100-
NORTHEAST WISCONSIN

CITY           SKY/WX    TMP DP  RH WIND       PRES   REMARKS
ANTIGO         HVY RAIN  66  65  96 SW16G25   29.83F VSB 3/4
STURGEON BAY   MOCLDY    70  64  83 S20G26    29.84S
6HR MIN TEMP:  70; 6HR MAX TEMP:  72;

GREEN BAY      PTCLDY    78  72  81 SE13      29.81F HX  80
6HR MIN TEMP:  78; 6HR MAX TEMP:  84;

MANITOWOC      NOT AVBL
APPLETON       MOCLDY    81  68  65 S10       29.82F HX  83
CLINTONVILLE   PTCLDY    81  72  74 S9        29.80S HX  84
OSHKOSH        CLOUDY    79  70  74 S13       29.81S HX  82
6HR MIN TEMP:  79; 6HR MAX TEMP:  86;

$$

WIZ032>034-041-042-053>061-300100-
SOUTHWEST WISCONSIN

CITY           SKY/WX    TMP DP  RH WIND       PRES   REMARKS
LA CROSSE      CLOUDY    76  65  68 W24G31    29.76S
6HR MIN TEMP:  76; 6HR MAX TEMP:  88; 6HR PCP: TRACE;

SPARTA         MOCLDY    82  67  61 S8        29.77F HX  84
VIROQUA        FAIR      79  69  72 S6        29.80S HX  82
BOSCOBEL       MOCLDY    84  68  58 S6        29.78R HX  87
6HR MIN TEMP:  84; 6HR MAX TEMP:  90;

PRAIRIE DU CHI CLOUDY    82  66  57 SE6       29.76S HX  85
PLATTEVILLE    FAIR      80  71  73 S7        29.82S HX  83
$$

WIZ056-057-062-063-064-067-068-300100-
SOUTH CENTRAL WISCONSIN

CITY           SKY/WX    TMP DP  RH WIND       PRES   REMARKS
BARABOO/DELLS  CLEAR     81  68  64 S13       29.80S HX  84
LONE ROCK      NOT AVBL
WATERTOWN      PTCLDY    80  72  76 S8        29.84S HX  84
MADISON        PTCLDY    82  69  64 S12       29.82S HX  85
6HR MIN TEMP:  82; 6HR MAX TEMP:  85;

MIDDLETON      FAIR      82  69  64 S9G17     29.83S HX  86
MONROE         CLEAR     79  72  78 S9        29.84S HX  82
JANESVILLE     CLEAR     82  70  65 S9        29.84F HX  86
$$

WIZ051-052-058>065-066-070>072-300100-
SOUTHEAST WISCONSIN

CITY           SKY/WX    TMP DP  RH WIND       PRES   REMARKS
MILWAUKEE      PTCLDY    77  70  79 S14       29.86F
6HR MIN TEMP:  76; 6HR MAX TEMP:  82;

WAUKESHA       MOCLDY    77  72  83 SE8       29.87S
MILWAUKEE/TIMM NOT AVBL
RACINE         PTCLDY    75  71  87 S13G22    29.89S
6HR MIN TEMP:  75; 6HR MAX TEMP:  78;

BURLINGTON     PTCLDY    79  71  75 S5        29.86S HX  82
KENOSHA        CLEAR     78  70  76 S16       29.87F HX  80
6HR MIN TEMP:  78; 6HR MAX TEMP:  84;

FOND DU LAC    CLOUDY    80  70  71 S10       29.83S HX  83
6HR MIN TEMP:  79; 6HR MAX TEMP:  85;

SHEBOYGAN      CLOUDY    73  69  87 S12       29.86S
6HR MIN TEMP:  73; 6HR MAX TEMP:  82; 6HR PCP:  0.01;

WEST BEND      CLOUDY    79  68  69 SE3       29.85F HX  81
JUNEAU         PTCLDY    80  71  73 S14       29.85S HX  83
$$

LSZ147-162-300100-
LAKE SUPERIOR

STATION/POSITION TIME  TEMP    WIND        PRES    WAVE
                       AIR SEA DIR/SP/G            HT/PER
                 (UTC) (F)     (DEG/KT/KT) (MB)    (FT/S)
W MID LAKE BUOY  2250   59 57   60/  4/  4 1007.4F   1
DEVILS ISLAND    2300   62        CALM     1007.9R
PORT WING        2300   64      20/  6/  7 1008.1R
SAXON HARBOR     2300   67      CALM  /  4 1007.8
$$

LMZ867-665-643>646-300100-
LAKE MICHIGAN

STATION/POSITION TIME  TEMP    WIND        PRES    WAVE
                       AIR SEA DIR/SP/G            HT/PER
                 (UTC) (F)     (DEG/KT/KT) (MB)    (FT/S)
N MID LAKE BUOY  2250   68 65  190/ 14/ 16 1010.4F   3/ 6
NORTHPORT PIER   2300   69     160/ 10/ 17 1010.5S
SISTER BAY       2211   71     180/ 20/ 29   N/A
KEWAUNEE LAKESHO 2300   67     180/ 13/ 15 1010.1R
SHEBOYGAN LAKESH 2300   69 68  180/ 18/ 18 1011.3R
ATWATER BUOY     2300   72     160/ 17/ 19 1012.2F
MILWAUKEE LAKESH 2300   72     150/ 15/ 17   N/A
S MID LAKE BUOY  2250   71 69  150/ 14/ 16 1012.2F   2/ 4
KENOSHA   LAKESH 2300   73     180/ 13/ 17 1011.2F
$$

TC  - TEMPERATURE IN CELSIUS
VSB - VISIBILITY IN STATUTE MILES
WCI - WIND CHILL INDEX
HX  - HEAT INDEX




USA.gov is the U.S. government's official web portal to all federal, state and local government web resources and services.